PBO Station Position Time Series. Reference Frame : NAM14
Format Version,1.1.0
4-character ID,METS
Station name,METSAHOVI
Begin Date, 1996-01-01
End Date, 2020-08-18
Release Date, 2021-08-28
Reference position, 60.2174729508 North Latitude, 24.3953215257 East Longitude, 94.62244 meters elevation,
Date, North (mm), East (mm), Vertical (mm), North Std. Deviation (mm), East Std. Deviation (mm),              Vertical Std. Deviation (mm), Quality,
1996-01-01,0.00, 0.00, 0.00, 4.48, 2.81, 10.01, repro,
1996-01-02,1.01, 1.12, 0.73, 3.86, 2.52, 9.52, repro,
1996-01-03,1.69, 2.57, -6.19, 3.86, 2.55, 9.89, repro,
1996-01-04,0.03, 1.00, 5.39, 3.80, 2.55, 9.49, repro,
1996-01-06,-0.25, -0.06, 4.69, 3.80, 2.51, 9.38, repro,
1996-01-07,-0.32, -0.48, 11.97, 3.77, 2.51, 9.47, repro,
1996-01-08,0.34, 1.29, 6.40, 4.69, 3.06, 11.42, repro,
1996-01-09,1.06, 2.23, 10.25, 4.58, 3.13, 10.28, repro,
1996-01-10,0.42, 2.17, 7.69, 3.92, 2.56, 9.50, repro,
1996-01-11,0.64, 3.09, 7.17, 3.84, 2.63, 9.45, repro,
1996-01-12,0.85, 2.84, 4.36, 5.22, 3.33, 12.53, repro,
1996-01-13,-0.33, 5.32, 3.28, 4.21, 2.73, 9.85, repro,
1996-01-14,0.33, 3.77, 5.03, 4.44, 2.90, 11.04, repro,
1996-01-15,-0.97, 3.73, 14.65, 4.02, 2.63, 9.64, repro,
1996-01-16,0.71, 0.26, 6.53, 4.76, 3.05, 11.38, repro,
1996-01-19,0.75, 2.55, 1.76, 4.16, 2.82, 10.30, repro,
1996-01-20,2.63, 1.16, 9.41, 4.11, 2.73, 9.90, repro,
1996-01-21,1.53, 3.38, 10.80, 3.90, 2.75, 9.97, repro,
1996-01-22,0.70, 2.55, -6.18, 5.06, 3.33, 12.92, repro,
1996-01-23,0.32, 2.22, 6.57, 4.39, 3.13, 10.60, repro,
1996-01-24,1.49, 2.76, 1.86, 4.04, 2.68, 9.97, repro,
1996-01-25,4.25, 4.48, -4.27, 4.20, 2.93, 10.31, repro,
1996-01-26,3.03, 3.53, 3.52, 4.39, 3.05, 10.50, repro,
1996-01-28,0.04, 2.15, 17.65, 4.27, 2.88, 10.26, repro,
1996-01-29,0.65, 4.30, 17.00, 4.42, 2.98, 10.16, repro,
1996-01-30,0.83, 3.80, 9.47, 4.78, 3.01, 11.30, repro,
1996-01-31,2.92, -1.86, 15.51, 4.62, 3.04, 10.42, repro,
1996-02-01,1.28, -0.88, 8.49, 3.89, 2.70, 10.02, repro,
1996-02-02,1.34, -1.95, 9.66, 4.07, 2.72, 9.46, repro,
1996-02-03,3.24, -2.51, 13.47, 4.26, 2.80, 10.29, repro,
1996-02-04,2.93, -4.01, 19.89, 4.73, 2.95, 10.87, repro,
1996-02-05,6.00, -2.76, 8.67, 3.84, 2.63, 9.40, repro,
1996-02-06,6.55, -2.78, 7.44, 4.17, 2.82, 9.89, repro,
1996-02-07,5.56, -2.85, 8.90, 4.63, 2.91, 10.70, repro,
1996-02-08,5.40, -5.22, 1.41, 4.68, 2.93, 11.03, repro,
1996-02-09,5.86, -4.47, 4.59, 4.72, 3.40, 12.98, repro,
1996-02-10,5.79, -4.38, -5.56, 3.61, 2.48, 9.40, repro,
1996-02-11,6.80, -1.38, -11.45, 3.66, 2.59, 9.33, repro,
1996-02-12,8.40, -4.26, 5.98, 3.84, 2.83, 9.52, repro,
1996-02-13,6.35, -3.78, 5.37, 3.69, 2.52, 9.33, repro,
1996-02-14,8.38, -3.29, 10.41, 3.90, 2.57, 9.55, repro,
1996-02-15,10.51, -0.65, 6.18, 3.70, 2.57, 9.36, repro,
1996-02-16,17.26, 5.02, 15.98, 3.93, 2.85, 9.66, repro,
1996-02-17,19.29, 3.68, 13.37, 3.69, 2.60, 9.15, repro,
1996-02-18,18.98, 1.09, 4.51, 4.73, 3.28, 12.87, repro,
1996-02-19,17.64, 0.17, 6.33, 3.77, 2.60, 9.29, repro,
1996-02-20,20.09, -0.34, 9.43, 3.86, 2.72, 9.52, repro,
1996-02-21,17.24, 1.57, 0.31, 3.65, 2.50, 9.24, repro,
1996-02-22,17.14, 4.48, 1.85, 3.63, 2.46, 9.17, repro,
1996-02-23,18.06, 10.81, 0.71, 3.66, 2.47, 9.15, repro,
1996-02-24,15.60, 8.67, -7.51, 3.61, 2.51, 9.13, repro,
1996-02-25,13.70, 6.35, 15.17, 3.80, 2.60, 9.41, repro,
1996-02-26,8.93, -0.87, 6.10, 3.60, 2.47, 9.09, repro,
1996-02-27,7.76, -4.00, 3.99, 4.71, 3.21, 12.92, repro,
1996-02-28,3.25, -5.34, -7.33, 8.87, 5.70, 31.47, repro,
1996-02-29,4.98, -5.40, 1.37, 5.48, 3.71, 15.67, repro,
1996-03-01,1.15, -2.44, -12.45, 4.08, 2.75, 10.46, repro,
1996-03-02,3.26, 3.38, -8.11, 4.63, 3.18, 12.70, repro,
1996-03-03,3.64, 2.14, -6.13, 4.53, 3.17, 12.59, repro,
1996-03-04,2.76, 2.86, 0.31, 4.36, 3.04, 12.35, repro,
1996-03-05,2.88, 1.85, -3.27, 4.36, 2.96, 11.04, repro,
1996-03-06,2.15, 1.26, -3.17, 4.26, 2.97, 11.05, repro,
1996-03-07,2.49, 2.29, -10.97, 4.11, 2.96, 10.50, repro,
1996-03-08,2.66, -0.81, -0.56, 4.56, 3.14, 12.19, repro,
1996-03-09,1.69, 1.17, -10.10, 4.64, 3.21, 12.17, repro,
1996-03-10,4.01, 1.55, 6.67, 4.98, 3.44, 13.32, repro,
1996-03-11,3.14, 0.61, -7.19, 4.20, 2.96, 10.57, repro,
1996-03-12,4.57, -0.17, -10.33, 4.13, 3.02, 10.69, repro,
1996-03-13,-1.76, 6.54, -22.26, 5.60, 4.74, 11.08, repro,
1996-03-14,5.53, 0.09, -0.37, 4.51, 3.26, 13.11, repro,
1996-03-15,6.32, 3.03, -21.41, 4.62, 3.22, 12.01, repro,
1996-03-16,4.43, 1.84, -13.58, 4.44, 3.04, 12.05, repro,
1996-03-17,-0.67, 3.49, -14.40, 5.02, 3.56, 12.82, repro,
1996-03-18,2.27, 2.25, -5.08, 4.68, 3.17, 12.79, repro,
1996-03-19,3.60, 2.26, -9.74, 4.61, 3.13, 12.08, repro,
1996-03-20,5.46, 1.46, -8.54, 6.05, 4.33, 18.43, repro,
1996-03-21,5.38, 3.66, -11.69, 4.70, 3.24, 12.56, repro,
1996-03-22,3.00, 0.53, 1.45, 4.70, 3.37, 12.90, repro,
1996-03-23,5.40, 2.62, -10.02, 5.04, 3.48, 14.66, repro,
1996-03-24,7.14, 0.56, 4.20, 4.96, 3.26, 12.77, repro,
1996-03-25,4.98, 3.82, -5.66, 4.99, 3.36, 14.37, repro,
1996-03-26,2.36, 5.27, 4.42, 5.06, 3.23, 13.51, repro,
1996-03-27,1.49, 6.50, 6.27, 3.71, 2.50, 9.34, repro,
1996-03-28,4.00, 3.11, -11.95, 3.68, 2.51, 9.19, repro,
1996-03-29,2.48, 4.59, -17.19, 4.04, 2.84, 11.38, repro,
1996-03-30,3.84, 4.27, -9.90, 3.57, 2.43, 9.24, repro,
1996-03-31,8.34, 6.21, -22.96, 3.77, 2.53, 9.10, repro,
1996-04-01,3.52, 6.79, -14.45, 4.36, 3.47, 9.61, repro,
1996-04-02,4.95, 0.40, -13.54, 3.84, 2.66, 9.57, repro,
1996-04-03,1.50, 1.92, -11.23, 3.58, 2.44, 9.14, repro,
1996-04-04,2.53, 2.34, -18.00, 3.62, 2.42, 8.93, repro,
1996-04-05,3.05, 3.72, -15.08, 3.60, 2.46, 9.12, repro,
1996-04-06,1.96, 3.76, -8.92, 3.59, 2.51, 9.31, repro,
1996-04-07,2.81, 3.69, -13.63, 3.57, 2.44, 9.29, repro,
1996-04-08,4.06, 3.37, -14.82, 3.50, 2.39, 9.00, repro,
1996-04-10,4.03, 3.31, -17.08, 3.73, 2.55, 9.03, repro,
1996-04-11,2.87, 2.15, -9.09, 3.64, 2.51, 9.50, repro,
1996-04-12,3.84, 0.90, -6.88, 3.86, 2.70, 9.49, repro,
1996-04-13,3.26, 2.39, -11.41, 3.62, 2.47, 8.90, repro,
1996-04-14,4.97, 2.30, -5.39, 3.80, 2.62, 9.28, repro,
1996-04-15,2.59, 3.85, -15.17, 8.91, 5.94, 23.52, repro,
1996-04-16,2.81, 0.76, -2.16, 3.56, 2.45, 8.90, repro,
1996-04-17,3.55, 1.89, -4.41, 3.75, 2.49, 9.28, repro,
1996-04-18,2.98, 1.35, -0.53, 3.94, 2.60, 9.43, repro,
1996-04-19,2.64, -0.03, 10.56, 3.71, 2.58, 9.11, repro,
1996-04-20,0.56, -0.25, 4.75, 4.19, 2.77, 9.44, repro,
1996-04-21,2.11, 2.35, 2.37, 3.76, 2.56, 9.39, repro,
1996-04-22,3.90, -0.18, 15.85, 3.78, 2.60, 9.19, repro,
1996-04-23,2.83, 2.81, 11.47, 4.10, 2.85, 9.50, repro,
1996-04-24,4.01, 1.98, 8.72, 3.52, 2.40, 8.85, repro,
1996-04-25,1.62, 2.89, -1.46, 7.74, 5.48, 21.85, repro,
1996-04-26,4.34, 2.83, 5.27, 3.66, 2.51, 9.51, repro,
1996-04-27,0.01, -0.05, 6.21, 4.00, 2.73, 9.43, repro,
1996-04-28,0.63, 3.10, -0.08, 3.64, 2.49, 9.19, repro,
1996-04-29,2.36, 2.89, 7.38, 3.68, 2.54, 9.31, repro,
1996-04-30,3.37, 1.11, 4.62, 3.73, 2.49, 9.17, repro,
1996-05-01,1.78, 1.51, 6.59, 3.67, 2.50, 9.09, repro,
1996-05-02,2.72, 1.07, 11.33, 3.62, 2.46, 9.27, repro,
1996-05-03,3.32, 1.42, 9.73, 3.78, 2.60, 9.91, repro,
1996-05-04,4.02, 1.66, 15.91, 3.63, 2.49, 9.13, repro,
1996-05-05,2.10, 2.10, 4.52, 3.58, 2.44, 9.00, repro,
1996-05-06,1.00, 0.63, 12.26, 3.56, 2.40, 8.81, repro,
1996-05-07,0.09, 0.34, 6.12, 4.26, 3.09, 12.65, repro,
1996-05-08,2.78, 0.90, -2.38, 3.72, 2.53, 9.21, repro,
1996-05-09,2.83, -0.27, 10.98, 3.62, 2.50, 9.05, repro,
1996-05-10,0.36, 0.37, 6.18, 4.53, 3.14, 12.13, repro,
1996-05-11,3.43, 2.70, 0.34, 4.81, 3.97, 9.89, repro,
1996-05-12,3.04, 0.72, 9.30, 3.87, 2.65, 9.34, repro,
1996-05-13,3.16, 0.22, 5.39, 3.74, 2.55, 9.43, repro,
1996-05-14,2.92, 1.13, 10.59, 3.61, 2.45, 8.96, repro,
1996-05-15,3.40, 0.69, 10.93, 3.57, 2.46, 8.88, repro,
1996-05-16,1.30, 3.19, -1.85, 4.20, 3.04, 12.18, repro,
1996-05-17,2.65, -0.28, 4.53, 3.93, 2.77, 10.87, repro,
1996-05-18,1.92, 0.24, 4.75, 3.65, 2.56, 9.32, repro,
1996-05-19,2.41, -0.33, 0.36, 3.62, 2.48, 8.94, repro,
1996-05-20,2.34, 2.81, -4.98, 3.61, 2.48, 9.04, repro,
1996-05-21,1.64, 1.07, 0.47, 3.73, 2.56, 9.48, repro,
1996-05-22,2.63, 0.86, 5.09, 3.82, 2.76, 10.51, repro,
1996-05-23,3.51, 0.06, 7.08, 3.68, 2.57, 9.59, repro,
1996-05-24,1.57, 1.28, 8.16, 3.76, 2.62, 9.49, repro,
1996-05-25,1.39, 2.24, 5.32, 3.65, 2.53, 9.27, repro,
1996-05-26,1.57, 1.08, 3.91, 3.68, 2.54, 9.19, repro,
1996-05-27,3.53, 3.00, 0.29, 3.81, 2.67, 10.18, repro,
1996-05-28,4.07, 1.73, 0.53, 3.58, 2.50, 9.07, repro,
1996-05-29,0.08, 1.86, -4.03, 3.83, 2.59, 9.48, repro,
1996-05-30,2.30, 1.21, -13.39, 4.01, 2.69, 9.90, repro,
1996-05-31,0.25, -0.92, -2.21, 3.66, 2.52, 8.97, repro,
1996-06-01,4.03, 2.33, -3.13, 3.70, 2.51, 8.98, repro,
1996-06-02,0.71, 2.57, -4.31, 3.68, 2.52, 9.20, repro,
1996-06-03,3.82, 0.67, 3.06, 3.70, 2.52, 9.27, repro,
1996-06-04,1.78, -0.76, -2.06, 3.74, 2.52, 9.43, repro,
1996-06-05,3.98, 0.14, -0.58, 4.75, 3.59, 11.48, repro,
1996-06-06,2.73, -0.58, 4.37, 3.67, 2.49, 9.06, repro,
1996-06-07,1.60, 0.52, 4.57, 4.97, 3.59, 10.23, repro,
1996-06-08,4.63, 2.19, -2.58, 5.07, 4.59, 10.95, repro,
1996-06-09,0.43, 1.23, 5.34, 4.15, 2.98, 9.50, repro,
1996-06-10,2.37, 1.16, -4.04, 3.85, 2.57, 9.25, repro,
1996-06-11,4.01, 1.53, 4.58, 3.71, 2.49, 9.21, repro,
1996-06-12,2.83, 2.02, 1.47, 3.74, 2.50, 9.23, repro,
1996-06-13,3.58, 1.57, 2.43, 3.64, 2.49, 9.19, repro,
1996-06-14,0.51, -0.04, -0.22, 5.10, 3.30, 12.94, repro,
1996-06-15,0.46, 0.39, -0.06, 3.68, 2.49, 9.23, repro,
1996-06-16,3.87, 0.61, 0.69, 3.68, 2.51, 9.22, repro,
1996-06-17,2.45, 1.97, -1.20, 3.76, 2.58, 9.46, repro,
1996-06-18,2.64, 1.53, 9.80, 3.71, 2.51, 9.27, repro,
1996-06-19,2.27, 2.30, 2.25, 3.75, 2.50, 9.29, repro,
1996-06-20,3.32, 3.09, 4.25, 3.76, 2.55, 9.57, repro,
1996-06-21,1.04, 1.89, 6.41, 3.64, 2.48, 9.22, repro,
1996-06-22,1.47, 2.16, 1.21, 3.64, 2.47, 9.26, repro,
1996-06-23,3.01, 1.66, -0.82, 3.75, 2.49, 9.12, repro,
1996-06-24,3.51, -0.21, -1.44, 3.72, 2.46, 9.15, repro,
1996-06-25,3.30, 1.13, -5.66, 3.75, 2.52, 9.66, repro,
1996-06-26,2.91, 1.57, 1.36, 3.59, 2.45, 9.08, repro,
1996-06-27,1.67, 1.84, -3.15, 4.05, 2.69, 9.63, repro,
1996-06-28,3.12, 0.82, 6.95, 3.76, 2.48, 9.17, repro,
1996-06-29,1.12, 0.66, 6.59, 3.78, 2.47, 9.14, repro,
1996-06-30,3.02, -0.20, 9.80, 3.79, 2.52, 9.20, repro,
1996-07-01,2.92, 3.36, 5.95, 3.60, 2.42, 9.15, repro,
1996-07-02,1.79, 2.38, 8.68, 3.70, 2.51, 9.63, repro,
1996-07-04,2.21, -0.17, 0.24, 3.66, 2.47, 9.11, repro,
1996-07-05,1.18, 4.08, -5.53, 3.65, 2.43, 9.06, repro,
1996-07-06,4.92, 3.03, -2.72, 3.75, 2.49, 9.15, repro,
1996-07-07,2.60, 2.10, 1.96, 3.81, 2.56, 9.60, repro,
1996-07-08,1.84, 4.26, -8.21, 4.30, 2.98, 9.79, repro,
1996-07-09,4.40, 2.03, -10.12, 4.47, 2.97, 10.95, repro,
1996-07-10,2.25, 1.10, 2.64, 4.06, 2.67, 9.78, repro,
1996-07-11,4.09, 0.49, -6.02, 3.62, 2.42, 9.11, repro,
1996-07-12,4.12, 0.20, -6.50, 4.40, 2.87, 11.75, repro,
1996-07-13,0.94, 1.93, -6.68, 3.94, 2.59, 10.02, repro,
1996-07-14,4.44, 1.53, 3.98, 3.89, 2.49, 9.78, repro,
1996-07-15,4.69, 0.07, -14.03, 4.34, 2.85, 10.12, repro,
1996-07-16,4.78, -0.65, -4.69, 4.13, 2.80, 9.90, repro,
1996-07-17,0.36, 0.31, -10.01, 4.82, 3.24, 10.12, repro,
1996-07-18,4.96, -0.48, -5.82, 3.72, 2.48, 9.36, repro,
1996-07-19,1.74, 0.01, -13.92, 3.69, 2.43, 9.39, repro,
1996-07-20,0.85, -0.47, -13.92, 3.71, 2.48, 9.18, repro,
1996-07-21,3.25, 0.09, -7.49, 3.95, 2.56, 9.79, repro,
1996-07-22,2.53, 0.34, -14.40, 3.68, 2.48, 9.31, repro,
1996-07-23,0.93, 2.22, -18.28, 3.62, 2.44, 9.21, repro,
1996-07-24,3.14, 1.63, 4.29, 3.83, 2.58, 9.86, repro,
1996-07-25,0.45, 0.96, -3.76, 3.71, 2.51, 9.33, repro,
1996-07-26,0.98, 0.05, 0.30, 4.08, 2.70, 9.95, repro,
1996-07-27,-0.34, -0.26, 4.12, 3.72, 2.46, 9.43, repro,
1996-07-28,2.81, 1.30, 1.27, 3.64, 2.47, 9.40, repro,
1996-07-29,-0.36, 1.22, -4.05, 3.83, 2.57, 9.92, repro,
1996-07-30,2.39, 3.10, 4.11, 3.92, 2.60, 10.23, repro,
1996-07-31,3.11, -0.50, 6.14, 3.76, 2.50, 9.27, repro,
1996-08-01,3.02, -1.55, 7.73, 3.79, 2.54, 9.49, repro,
1996-08-02,1.54, -0.12, 8.21, 3.80, 2.60, 9.89, repro,
1996-08-03,-0.29, -0.43, -1.88, 3.81, 2.60, 9.96, repro,
1996-08-04,-1.37, -1.58, -4.35, 4.03, 2.70, 9.61, repro,
1996-08-05,1.38, -1.99, 1.58, 3.73, 2.49, 9.26, repro,
1996-08-06,0.77, -1.37, -1.57, 3.97, 2.63, 10.07, repro,
1996-08-07,0.31, -2.12, -2.15, 3.76, 2.59, 9.61, repro,
1996-08-08,1.62, -1.99, 12.53, 4.12, 2.69, 10.23, repro,
1996-08-09,4.67, -0.45, 7.39, 3.86, 2.60, 9.85, repro,
1996-08-10,1.59, -2.44, 5.51, 3.63, 2.45, 9.09, repro,
1996-08-11,2.95, -0.92, 6.50, 3.68, 2.46, 9.17, repro,
1996-08-12,-0.36, 0.73, -2.33, 3.75, 2.52, 9.77, repro,
1996-08-13,2.20, -2.19, 19.61, 6.88, 5.07, 20.84, repro,
1996-08-14,1.48, 0.12, 7.19, 4.12, 2.82, 11.90, repro,
1996-08-15,2.01, 1.72, 4.94, 3.61, 2.44, 9.32, repro,
1996-08-16,2.06, 2.01, 1.81, 3.82, 2.52, 9.37, repro,
1996-08-17,2.72, 1.40, -5.98, 3.95, 2.58, 9.72, repro,
1996-08-18,1.69, 0.38, -2.91, 3.79, 2.52, 10.00, repro,
1996-08-19,0.68, -0.40, -6.04, 4.06, 2.96, 10.22, repro,
1996-08-20,0.73, -1.89, 12.14, 3.81, 2.67, 9.52, repro,
1996-08-21,1.60, 2.02, 4.23, 3.98, 2.79, 10.57, repro,
1996-08-22,1.59, 0.14, 8.31, 3.79, 2.61, 10.12, repro,
1996-08-23,3.90, -0.66, 5.34, 3.58, 2.45, 9.23, repro,
1996-08-24,4.67, 0.64, 5.39, 3.75, 2.55, 10.17, repro,
1996-08-25,3.14, 1.03, 1.29, 3.59, 2.43, 9.20, repro,
1996-08-26,2.47, 2.57, -10.07, 3.79, 2.59, 9.46, repro,
1996-08-27,3.83, 2.15, 0.38, 3.73, 2.52, 9.33, repro,
1996-08-28,1.36, 1.59, -5.75, 3.62, 2.46, 9.15, repro,
1996-08-29,2.34, -0.11, 2.80, 4.16, 2.82, 11.91, repro,
1996-08-30,4.40, 0.02, 9.37, 4.08, 2.81, 10.47, repro,
1996-08-31,1.23, 2.20, 6.69, 3.69, 2.52, 9.53, repro,
1996-09-01,3.95, 1.51, -8.47, 3.59, 2.45, 9.09, repro,
1996-09-02,2.47, -1.08, -0.13, 3.71, 2.53, 9.57, repro,
1996-09-03,1.99, 0.86, 1.23, 4.02, 2.68, 10.05, repro,
1996-09-04,3.39, 1.18, 0.23, 3.72, 2.55, 9.61, repro,
1996-09-05,3.23, -1.09, 3.19, 4.18, 2.93, 9.74, repro,
1996-09-06,3.81, 2.97, -7.44, 3.88, 2.65, 10.00, repro,
1996-09-07,5.93, -0.06, 3.04, 3.97, 2.88, 10.85, repro,
1996-09-08,4.67, 2.29, -4.77, 3.73, 2.64, 10.16, repro,
1996-09-09,3.51, 1.94, 3.60, 4.02, 2.85, 10.89, repro,
1996-09-10,4.33, -0.62, 12.45, 4.03, 2.82, 11.01, repro,
1996-09-11,4.69, 2.25, 6.09, 3.83, 2.73, 10.15, repro,
1996-09-12,-1.69, -2.30, -5.33, 4.58, 3.87, 10.35, repro,
1996-09-13,3.75, 0.69, -7.79, 3.78, 2.64, 9.83, repro,
1996-09-14,4.16, 1.32, -4.98, 4.00, 2.79, 10.67, repro,
1996-09-15,3.56, 2.70, -10.90, 3.73, 2.55, 9.76, repro,
1996-09-16,5.35, -0.15, -5.00, 3.71, 2.61, 9.54, repro,
1996-09-18,1.97, 0.07, -7.37, 3.67, 2.64, 9.81, repro,
1996-09-19,0.90, 0.18, -5.15, 3.85, 2.75, 10.61, repro,
1996-09-20,3.93, 0.27, -7.26, 3.82, 2.71, 10.13, repro,
1996-09-21,2.89, -0.88, 5.11, 3.83, 2.68, 9.80, repro,
1996-09-22,3.49, 1.55, -6.09, 3.83, 2.73, 10.14, repro,
1996-09-23,2.50, 1.44, -5.89, 4.35, 3.29, 13.20, repro,
1996-09-24,2.52, 1.62, -3.94, 3.69, 2.65, 10.69, repro,
1996-09-26,4.54, 0.24, 4.75, 3.66, 2.55, 9.62, repro,
1996-09-27,1.54, 0.66, 1.97, 3.80, 2.60, 9.53, repro,
1996-09-28,4.94, 2.88, -0.93, 3.69, 2.60, 9.88, repro,
1996-09-29,3.84, 3.41, -10.04, 3.83, 2.71, 10.56, repro,
1996-09-30,2.57, 3.94, 2.34, 3.87, 2.64, 9.66, repro,
1996-10-01,2.73, 2.30, 4.60, 3.83, 2.65, 10.06, repro,
1996-10-03,4.30, 0.00, -0.32, 3.71, 2.50, 9.24, repro,
1996-10-04,3.77, 1.20, 7.84, 3.64, 2.55, 9.24, repro,
1996-10-05,6.17, -0.22, 4.65, 3.70, 2.64, 9.69, repro,
1996-10-06,3.81, 1.50, 0.25, 3.63, 2.50, 9.01, repro,
1996-10-07,3.10, -0.44, 4.55, 3.53, 2.43, 8.96, repro,
1996-10-08,2.46, 1.97, -4.36, 3.83, 2.58, 9.46, repro,
1996-10-09,1.18, 1.26, -10.03, 3.82, 2.54, 9.64, repro,
1996-10-10,3.72, 1.83, -11.80, 3.67, 2.51, 9.39, repro,
1996-10-11,4.71, 0.60, -7.17, 3.61, 2.45, 8.91, repro,
1996-10-12,3.55, 1.35, -9.08, 3.55, 2.43, 8.83, repro,
1996-10-13,1.31, -0.77, 3.44, 3.68, 2.62, 9.32, repro,
1996-10-14,2.14, -0.48, -1.03, 3.88, 2.69, 9.64, repro,
1996-10-15,4.96, 0.74, -6.62, 3.93, 2.73, 9.35, repro,
1996-10-16,4.09, -0.32, -1.84, 3.75, 2.62, 9.30, repro,
1996-10-17,3.17, -0.50, 1.27, 3.51, 2.39, 9.04, repro,
1996-10-19,1.56, -1.80, 3.92, 3.62, 2.47, 8.95, repro,
1996-10-20,5.42, 0.42, -7.81, 3.50, 2.41, 9.03, repro,
1996-10-21,4.49, 1.31, -9.47, 3.66, 2.49, 9.01, repro,
1996-10-22,3.73, -1.08, 1.20, 3.63, 2.47, 9.21, repro,
1996-10-23,5.75, -2.11, -4.41, 3.58, 2.45, 9.17, repro,
1996-10-24,4.80, 33.78, -82.69, 475.75, 403.80, 624.31, repro,
1996-10-25,2.31, -2.14, -8.58, 3.60, 2.46, 9.19, repro,
1996-10-26,3.41, 0.79, -9.95, 3.60, 2.53, 9.04, repro,
1996-10-27,4.87, 1.60, -4.54, 3.71, 2.54, 9.47, repro,
1996-10-28,0.65, -2.53, 17.25, 4.54, 3.34, 11.23, repro,
1996-10-29,4.31, 3.58, 11.50, 4.03, 2.82, 9.31, repro,
1996-10-30,5.00, 2.07, -1.58, 3.66, 2.63, 9.33, repro,
1996-10-31,-0.12, -0.22, -1.20, 3.66, 2.56, 9.25, repro,
1996-11-01,1.70, 1.36, -0.86, 3.59, 2.49, 9.56, repro,
1996-11-02,2.69, 0.92, 5.35, 3.56, 2.46, 9.32, repro,
1996-11-03,3.11, 0.45, 2.76, 3.62, 2.50, 9.31, repro,
1996-11-04,2.43, -0.16, 4.61, 4.73, 3.99, 10.44, repro,
1996-11-05,0.96, -0.98, 6.45, 3.68, 2.55, 9.60, repro,
1996-11-07,1.51, 0.65, 14.02, 3.64, 2.50, 9.38, repro,
1996-11-08,3.24, -1.37, 7.46, 3.71, 2.52, 9.54, repro,
1996-11-09,0.99, 0.13, -10.22, 3.65, 2.57, 9.35, repro,
1996-11-10,0.84, 0.25, -8.18, 3.76, 2.63, 10.00, repro,
1996-11-11,-1.50, -1.50, -13.47, 3.68, 2.54, 9.35, repro,
1996-11-12,-0.32, -0.42, -4.65, 3.73, 2.51, 9.66, repro,
1996-11-15,-0.46, -1.73, -3.81, 3.66, 2.52, 9.50, repro,
1996-11-16,1.35, -1.26, -14.81, 3.72, 2.57, 9.64, repro,
1996-11-17,-0.19, -0.41, -1.22, 3.97, 2.76, 11.18, repro,
1996-11-18,2.34, 1.10, -6.55, 3.78, 2.62, 9.61, repro,
1996-11-19,0.35, -1.45, 9.63, 3.90, 2.72, 10.46, repro,
1996-11-20,1.04, -1.49, 6.68, 4.09, 2.85, 10.10, repro,
1996-11-21,1.88, 0.04, 6.09, 3.97, 2.73, 10.72, repro,
1996-11-22,1.25, 0.33, -1.22, 3.99, 2.78, 11.09, repro,
1996-11-23,-1.42, -0.89, 1.72, 3.85, 2.66, 10.20, repro,
1996-11-24,-0.46, -2.31, -3.04, 3.88, 2.75, 10.22, repro,
1996-11-25,2.01, -1.35, -3.07, 3.99, 2.76, 9.76, repro,
1996-11-26,1.16, -1.69, -5.38, 4.29, 3.05, 11.07, repro,
1996-11-28,2.89, -3.77, 4.25, 4.40, 3.18, 12.82, repro,
1996-11-30,-1.37, 0.03, 0.83, 4.03, 2.89, 11.51, repro,
1996-12-01,-0.06, 0.01, -0.36, 4.32, 3.07, 11.54, repro,
1996-12-02,4.55, -0.24, 7.00, 4.87, 3.44, 11.43, repro,
1996-12-03,1.90, -1.75, 0.54, 4.18, 2.95, 10.64, repro,
1996-12-04,-2.14, -2.13, 5.37, 4.46, 3.23, 11.99, repro,
1996-12-05,-4.57, -13.26, 4.61, 5.78, 4.72, 13.83, repro,
1996-12-06,2.84, -0.70, -15.22, 4.55, 3.33, 12.38, repro,
1996-12-08,-1.37, -1.56, -1.74, 4.06, 2.83, 10.08, repro,
1996-12-09,3.23, -1.11, 0.21, 4.22, 2.93, 11.44, repro,
1996-12-10,2.19, -3.67, -6.77, 4.16, 2.91, 10.45, repro,
1996-12-11,4.16, -2.75, -7.46, 4.08, 2.85, 10.68, repro,
1996-12-12,4.39, -0.36, -5.70, 4.10, 2.88, 10.99, repro,
1996-12-13,1.28, 0.66, 3.42, 3.84, 2.66, 9.99, repro,
1996-12-14,0.92, -0.17, 8.11, 3.75, 2.58, 9.90, repro,
1996-12-15,2.77, 0.02, 0.36, 3.74, 2.61, 9.86, repro,
1996-12-16,3.71, -2.53, 0.15, 3.97, 2.73, 10.69, repro,
1996-12-17,0.38, -3.40, -3.46, 4.08, 2.76, 10.89, repro,
1996-12-18,3.84, -3.71, -1.91, 3.72, 2.58, 9.63, repro,
1996-12-19,2.92, -3.24, 3.84, 3.56, 2.51, 9.55, repro,
1996-12-20,0.63, -2.49, -4.87, 3.67, 2.53, 9.93, repro,
1996-12-21,2.52, -1.07, -9.00, 3.77, 2.65, 9.62, repro,
1996-12-22,3.15, -1.61, -13.64, 4.05, 2.96, 10.16, repro,
1996-12-24,3.01, -0.14, -10.51, 3.82, 2.62, 10.07, repro,
1996-12-25,2.38, -1.41, -15.70, 4.50, 3.80, 9.89, repro,
1996-12-26,0.67, -0.13, -24.99, 3.81, 2.64, 9.41, repro,
1996-12-27,4.28, -1.61, -10.00, 3.96, 2.67, 10.22, repro,
1996-12-28,7.70, -0.69, -8.47, 3.80, 2.60, 9.57, repro,
1996-12-29,3.16, 0.63, -3.63, 3.86, 2.69, 9.77, repro,
1996-12-30,2.11, 2.74, -23.18, 4.13, 2.81, 10.30, repro,
1996-12-31,2.76, 3.06, -23.69, 5.36, 3.63, 13.32, repro,
1997-01-01,3.18, 1.69, -5.19, 4.36, 2.99, 10.91, repro,
1997-01-02,2.68, 1.60, -14.23, 5.01, 3.03, 11.57, repro,
1997-01-03,2.46, 1.13, -10.38, 4.13, 2.79, 10.30, repro,
1997-01-04,0.46, -0.81, 0.82, 4.07, 2.67, 10.27, repro,
1997-01-05,0.81, 0.42, -7.84, 4.73, 2.93, 10.66, repro,
1997-01-06,-0.22, 0.72, -7.86, 4.62, 2.99, 10.99, repro,
1997-01-07,1.40, -1.09, -13.66, 4.86, 3.61, 10.99, repro,
1997-01-08,1.25, 0.27, -9.86, 4.83, 2.97, 11.16, repro,
1997-01-09,1.41, -0.51, -4.05, 4.57, 3.20, 11.03, repro,
1997-01-10,0.07, -1.76, 0.75, 4.27, 2.76, 10.16, repro,
1997-01-11,1.45, -2.09, -7.34, 4.01, 2.73, 9.97, repro,
1997-01-12,-0.13, -2.12, -6.38, 3.97, 2.74, 9.84, repro,
1997-01-13,0.73, -1.77, 3.56, 3.93, 2.63, 9.77, repro,
1997-01-14,2.83, 2.59, -5.86, 4.24, 2.92, 10.80, repro,
1997-01-15,0.32, -0.48, -8.02, 4.42, 2.89, 10.69, repro,
1997-01-16,0.67, -0.66, -7.25, 4.59, 2.95, 10.81, repro,
1997-01-17,1.49, 1.42, -7.48, 3.94, 2.75, 10.07, repro,
1997-01-18,2.74, -0.27, -2.43, 4.51, 2.91, 10.70, repro,
1997-01-19,2.20, -2.44, 0.07, 4.23, 2.82, 10.50, repro,
1997-01-20,2.26, 0.81, -4.78, 4.34, 2.81, 10.59, repro,
1997-01-21,-1.54, 1.85, -6.10, 4.30, 2.88, 10.73, repro,
1997-01-22,0.35, 1.53, -16.26, 4.00, 2.71, 9.92, repro,
1997-01-23,0.55, 0.50, -3.80, 4.40, 2.96, 10.88, repro,
1997-01-24,0.43, 0.59, -19.81, 4.51, 3.10, 11.10, repro,
1997-01-25,-1.53, 4.62, -34.39, 5.23, 4.10, 11.71, repro,
1997-01-26,-1.24, -1.55, -20.34, 4.04, 2.70, 9.90, repro,
1997-01-27,-2.13, 0.72, -15.80, 4.49, 2.92, 11.19, repro,
1997-01-28,1.87, 0.34, -19.37, 3.99, 2.71, 10.61, repro,
1997-01-29,3.17, 1.49, -12.24, 3.84, 2.60, 9.62, repro,
1997-01-30,2.36, 2.32, -16.24, 3.89, 2.66, 9.47, repro,
1997-12-31,-3.81, 0.55, -8.21, 4.14, 4.88, 10.52, repro,
1998-01-01,-2.37, -0.07, -15.09, 4.40, 5.64, 11.24, repro,
1998-01-02,-6.39, 2.81, -14.78, 4.00, 4.94, 10.91, repro,
1998-01-03,0.33, -4.08, 3.79, 4.25, 5.44, 11.61, repro,
1998-01-04,-4.04, -0.45, 8.11, 3.93, 2.88, 9.83, repro,
1998-01-05,0.86, 0.74, -4.99, 4.20, 2.89, 10.17, repro,
1998-01-06,-4.44, -2.13, -10.51, 4.18, 4.96, 10.55, repro,
1998-01-07,0.65, 0.49, 1.10, 4.56, 3.33, 11.73, repro,
1998-01-08,1.68, 1.49, -4.94, 4.12, 3.01, 10.86, repro,
1998-01-09,2.10, -4.79, -20.53, 4.84, 6.13, 12.27, repro,
1998-01-10,1.72, -0.06, -15.78, 4.84, 3.62, 11.56, repro,
1998-01-11,-0.13, -3.88, -15.72, 5.41, 5.55, 12.06, repro,
1998-01-12,1.19, 2.37, -8.66, 4.60, 3.28, 12.09, repro,
1998-01-13,2.76, 4.39, -11.01, 3.98, 2.91, 10.63, repro,
1998-01-14,0.49, 2.13, -3.46, 4.07, 3.04, 10.67, repro,
1998-01-15,7.27, -13.91, 16.75, 5.21, 6.48, 12.07, repro,
1998-01-16,0.53, 1.19, -1.03, 4.66, 5.59, 11.87, repro,
1998-01-17,1.79, 1.66, -0.16, 4.17, 3.19, 10.79, repro,
1998-01-18,-1.51, -0.13, 0.44, 4.01, 5.00, 10.58, repro,
1998-01-19,-0.42, 3.05, 0.33, 4.00, 5.22, 10.69, repro,
1998-01-20,3.01, -1.70, -14.52, 4.05, 5.05, 10.16, repro,
1998-01-21,5.04, -4.92, -25.45, 4.02, 4.61, 9.78, repro,
1998-01-22,2.54, -1.62, -20.19, 3.98, 4.86, 10.04, repro,
1998-01-23,1.39, -2.48, -13.65, 4.03, 2.90, 10.18, repro,
1998-01-24,-0.25, -5.42, -1.96, 3.78, 2.65, 9.43, repro,
1998-01-25,2.38, 4.96, -16.82, 4.18, 3.55, 9.67, repro,
1998-01-26,-0.73, -4.11, -16.65, 3.98, 4.74, 9.79, repro,
1998-01-27,-0.67, 1.69, -1.26, 3.89, 2.80, 9.44, repro,
1998-01-29,2.65, 2.35, -15.15, 4.23, 2.81, 11.23, repro,
1998-01-31,2.58, 0.06, -8.04, 3.70, 2.51, 9.12, repro,
1998-02-01,2.28, 0.59, -13.07, 4.11, 2.82, 11.61, repro,
1998-02-02,2.67, 3.09, -7.48, 3.70, 2.45, 9.02, repro,
1998-02-03,0.66, 3.39, -10.45, 3.62, 2.44, 8.99, repro,
1998-02-04,3.78, 3.07, -16.12, 4.41, 2.99, 10.81, repro,
1998-02-05,2.42, 2.91, -6.63, 4.05, 2.65, 9.92, repro,
1998-02-06,3.07, 3.62, -15.07, 4.06, 2.66, 10.09, repro,
1998-02-07,2.80, 3.77, -10.46, 3.98, 2.65, 9.91, repro,
1998-02-08,0.81, 1.10, -16.71, 4.28, 2.91, 10.70, repro,
1998-02-09,2.64, 1.13, -5.42, 4.09, 2.70, 10.17, repro,
1998-02-10,2.64, 2.15, 4.80, 3.80, 2.57, 9.35, repro,
1998-02-11,1.39, -0.39, 1.54, 4.06, 2.62, 9.64, repro,
1998-02-13,3.59, -1.41, 0.85, 3.80, 2.53, 9.34, repro,
1998-02-14,4.66, 2.01, -12.50, 3.81, 2.51, 9.35, repro,